Time,TemperatureF,DewpointF,PressureIn,WindDirection,WindDirectionDegrees,WindSpeedMPH,WindSpeedGustMPH,Humidity,HourlyPrecipIn,Conditions,Clouds,dailyrainin,SoftwareType,DateUTC
2013-04-23 00:00:00,70.0,65.3,29.93,NE,45,0.0,0.0,85,0.00,,---,0.80,VWS V13.01,2013-04-23 04:00:00,
2013-04-23 00:01:00,70.0,65.3,29.93,NE,45,0.0,0.0,85,0.00,,---,0.80,VWS V13.01,2013-04-23 04:01:00,
2013-04-23 00:06:00,70.0,65.3,29.93,NE,45,0.0,0.0,85,0.00,,---,0.80,VWS V13.01,2013-04-23 04:06:00,
2013-04-23 00:11:00,70.0,65.3,29.93,NE,45,0.0,0.0,85,0.00,,---,0.80,VWS V13.01,2013-04-23 04:11:00,
2013-04-23 00:16:00,69.8,65.1,29.93,NE,45,0.0,0.0,85,0.00,,---,0.80,VWS V13.01,2013-04-23 04:16:00,
2013-04-23 00:21:00,70.0,65.3,29.93,NE,45,0.0,0.0,85,0.00,,---,0.80,VWS V13.01,2013-04-23 04:21:00,
2013-04-23 00:26:00,69.8,65.1,29.93,NE,45,0.0,0.0,85,0.00,,---,0.80,VWS V13.01,2013-04-23 04:26:00,
2013-04-23 00:31:00,69.8,65.1,29.93,NE,45,0.0,0.0,85,0.00,,---,0.80,VWS V13.01,2013-04-23 04:31:00,
2013-04-23 00:36:00,69.8,65.1,29.93,NE,45,0.0,0.0,85,0.00,,---,0.80,VWS V13.01,2013-04-23 04:36:00,
2013-04-23 00:41:00,69.6,64.9,29.92,NE,45,0.0,0.0,85,0.00,,---,0.80,VWS V13.01,2013-04-23 04:41:00,
2013-04-23 00:46:00,69.6,64.9,29.92,NE,45,0.0,0.0,85,0.00,,---,0.80,VWS V13.01,2013-04-23 04:46:00,
2013-04-23 00:51:00,69.4,64.7,29.92,NE,45,0.0,0.0,85,0.00,,---,0.80,VWS V13.01,2013-04-23 04:51:00,
2013-04-23 00:56:00,69.3,64.6,29.92,NE,45,0.0,0.0,85,0.00,,---,0.80,VWS V13.01,2013-04-23 04:56:00,
2013-04-23 01:01:00,69.3,64.6,29.92,NE,45,0.0,0.0,85,0.00,,---,0.80,VWS V13.01,2013-04-23 05:01:00,
2013-04-23 01:06:00,69.3,64.6,29.92,NE,45,0.0,0.0,85,0.00,,---,0.80,VWS V13.01,2013-04-23 05:06:00,
2013-04-23 01:11:00,69.3,64.6,29.92,NE,45,0.0,0.0,85,0.00,,---,0.80,VWS V13.01,2013-04-23 05:11:00,
2013-04-23 01:16:00,69.3,64.6,29.92,NE,45,0.0,0.0,85,0.00,,---,0.80,VWS V13.01,2013-04-23 05:16:00,
2013-04-23 01:21:00,69.3,64.6,29.91,NE,45,0.0,0.0,85,0.00,,---,0.80,VWS V13.01,2013-04-23 05:21:00,
2013-04-23 01:26:00,69.3,64.6,29.91,NE,45,0.0,0.0,85,0.00,,---,0.80,VWS V13.01,2013-04-23 05:26:00,
2013-04-23 01:31:00,69.3,64.9,29.91,NE,45,0.0,0.0,86,0.00,,---,0.80,VWS V13.01,2013-04-23 05:31:00,
2013-04-23 01:36:00,69.3,64.9,29.91,NE,45,0.0,0.0,86,0.00,,---,0.80,VWS V13.01,2013-04-23 05:36:00,
2013-04-23 01:41:00,69.4,65.1,29.91,NE,45,0.0,0.0,86,0.00,,---,0.80,VWS V13.01,2013-04-23 05:41:00,
2013-04-23 01:46:00,69.4,65.1,29.91,NE,45,0.0,0.0,86,0.00,,---,0.80,VWS V13.01,2013-04-23 05:46:00,
2013-04-23 01:51:00,69.3,64.9,29.90,NE,45,0.0,0.0,86,0.00,,---,0.80,VWS V13.01,2013-04-23 05:51:00,
2013-04-23 01:56:00,69.3,64.9,29.90,NE,45,0.0,0.0,86,0.00,,---,0.80,VWS V13.01,2013-04-23 05:56:00,
2013-04-23 02:01:00,69.3,64.9,29.90,NE,45,0.0,0.0,86,0.00,,---,0.80,VWS V13.01,2013-04-23 06:01:00,
2013-04-23 02:06:00,69.3,64.9,29.90,NE,45,0.0,0.0,86,0.00,,---,0.80,VWS V13.01,2013-04-23 06:06:00,
2013-04-23 02:11:00,69.4,65.4,29.89,NE,45,0.0,0.0,87,0.00,,---,0.80,VWS V13.01,2013-04-23 06:11:00,
2013-04-23 02:16:00,69.3,65.2,29.89,NE,45,0.0,0.0,87,0.00,,---,0.80,VWS V13.01,2013-04-23 06:16:00,
2013-04-23 02:21:00,69.3,65.2,29.89,NE,45,0.0,0.0,87,0.00,,---,0.80,VWS V13.01,2013-04-23 06:21:00,
2013-04-23 02:26:00,69.3,64.9,29.89,NE,45,0.0,0.0,86,0.00,,---,0.80,VWS V13.01,2013-04-23 06:26:00,
2013-04-23 02:31:00,69.3,64.9,29.88,NE,45,0.0,0.0,86,0.00,,---,0.80,VWS V13.01,2013-04-23 06:31:00,
2013-04-23 02:36:00,69.3,65.2,29.88,NE,45,0.0,0.0,87,0.00,,---,0.80,VWS V13.01,2013-04-23 06:36:00,
2013-04-23 02:41:00,69.1,64.7,29.88,NE,45,0.0,0.0,86,0.00,,---,0.80,VWS V13.01,2013-04-23 06:41:00,
2013-04-23 02:46:00,69.3,65.2,29.88,NE,45,0.0,0.0,87,0.00,,---,0.80,VWS V13.01,2013-04-23 06:46:00,
2013-04-23 02:51:00,69.1,65.1,29.88,NE,45,0.0,0.0,87,0.00,,---,0.80,VWS V13.01,2013-04-23 06:51:00,
2013-04-23 02:56:00,68.9,64.9,29.88,NE,45,0.0,0.0,87,0.00,,---,0.80,VWS V13.01,2013-04-23 06:56:00,
2013-04-23 03:01:00,68.9,64.9,29.87,NE,45,0.0,0.0,87,0.00,,---,0.80,VWS V13.01,2013-04-23 07:01:00,
2013-04-23 03:06:00,68.9,64.9,29.87,NE,45,0.0,0.0,87,0.00,,---,0.80,VWS V13.01,2013-04-23 07:06:00,
2013-04-23 03:11:00,68.7,64.4,29.88,NE,45,0.0,0.0,86,0.00,,---,0.80,VWS V13.01,2013-04-23 07:11:00,
2013-04-23 03:16:00,68.7,64.7,29.87,NE,45,0.0,0.0,87,0.00,,---,0.80,VWS V13.01,2013-04-23 07:16:00,
2013-04-23 03:21:00,68.7,64.7,29.87,NE,45,0.0,0.0,87,0.00,,---,0.80,VWS V13.01,2013-04-23 07:21:00,
2013-04-23 03:26:00,68.9,65.2,29.87,NE,45,0.0,0.0,88,0.00,,---,0.80,VWS V13.01,2013-04-23 07:26:00,
2013-04-23 03:31:00,68.7,65.0,29.87,NE,45,0.0,0.0,88,0.00,,---,0.80,VWS V13.01,2013-04-23 07:31:00,
2013-04-23 03:36:00,68.9,64.9,29.87,NE,45,0.0,0.0,87,0.00,,---,0.80,VWS V13.01,2013-04-23 07:36:00,
2013-04-23 03:41:00,68.9,65.2,29.87,NE,45,0.0,0.0,88,0.00,,---,0.80,VWS V13.01,2013-04-23 07:41:00,
2013-04-23 03:46:00,68.7,64.7,29.87,NE,45,0.0,0.0,87,0.00,,---,0.80,VWS V13.01,2013-04-23 07:46:00,
2013-04-23 03:51:00,68.9,64.9,29.87,NE,45,0.0,0.0,87,0.00,,---,0.80,VWS V13.01,2013-04-23 07:51:00,
2013-04-23 03:56:00,68.9,65.2,29.87,NNW,338,0.0,0.0,88,0.00,,---,0.80,VWS V13.01,2013-04-23 07:56:00,
2013-04-23 04:01:00,68.7,65.0,29.87,NNW,338,0.0,0.0,88,0.00,,---,0.80,VWS V13.01,2013-04-23 08:01:00,
2013-04-23 04:06:00,68.9,65.5,29.87,NNW,338,0.0,0.0,89,0.00,,---,0.80,VWS V13.01,2013-04-23 08:06:00,
2013-04-23 04:11:00,68.9,65.5,29.87,NNW,338,0.0,1.8,89,0.00,,---,0.80,VWS V13.01,2013-04-23 08:11:00,
2013-04-23 04:16:00,68.9,65.2,29.87,NNW,338,0.0,1.8,88,0.00,,---,0.80,VWS V13.01,2013-04-23 08:16:00,
2013-04-23 04:21:00,68.9,65.2,29.86,NNW,338,0.0,1.8,88,0.00,,---,0.80,VWS V13.01,2013-04-23 08:21:00,
2013-04-23 04:26:00,68.7,65.0,29.86,NNW,338,0.0,1.8,88,0.00,,---,0.80,VWS V13.01,2013-04-23 08:26:00,
2013-04-23 04:31:00,68.7,65.0,29.86,NNW,338,0.0,1.8,88,0.00,,---,0.80,VWS V13.01,2013-04-23 08:31:00,
2013-04-23 04:36:00,68.7,65.0,29.86,NNW,338,0.0,1.8,88,0.00,,---,0.80,VWS V13.01,2013-04-23 08:36:00,
2013-04-23 04:41:00,68.7,65.3,29.86,NNW,338,0.0,1.8,89,0.00,,---,0.80,VWS V13.01,2013-04-23 08:41:00,
2013-04-23 04:46:00,68.5,65.2,29.86,NNW,338,0.0,1.8,89,0.00,,---,0.80,VWS V13.01,2013-04-23 08:46:00,
2013-04-23 04:51:00,68.7,65.3,29.87,NNW,338,0.0,1.8,89,0.00,,---,0.80,VWS V13.01,2013-04-23 08:51:00,
2013-04-23 04:56:00,68.7,65.7,29.87,NNW,338,0.0,1.8,90,0.00,,---,0.80,VWS V13.01,2013-04-23 08:56:00,
2013-04-23 05:01:00,68.7,65.7,29.87,NNW,338,0.0,0.0,90,0.00,,---,0.80,VWS V13.01,2013-04-23 09:01:00,
2013-04-23 05:06:00,68.7,65.7,29.87,NNW,338,0.0,0.0,90,0.00,,---,0.80,VWS V13.01,2013-04-23 09:06:00,
2013-04-23 05:11:00,68.7,65.7,29.87,NW,315,0.0,4.7,90,0.00,,---,0.80,VWS V13.01,2013-04-23 09:11:00,
2013-04-23 05:16:00,68.7,65.7,29.87,NW,315,0.0,4.7,90,0.00,,---,0.80,VWS V13.01,2013-04-23 09:16:00,
2013-04-23 05:21:00,68.7,65.7,29.87,NW,315,0.0,4.7,90,0.00,,---,0.80,VWS V13.01,2013-04-23 09:21:00,
2013-04-23 05:26:00,68.7,65.7,29.87,NW,315,0.0,4.7,90,0.00,,---,0.80,VWS V13.01,2013-04-23 09:26:00,
2013-04-23 05:31:00,68.7,65.7,29.87,NW,315,0.0,4.7,90,0.00,,---,0.80,VWS V13.01,2013-04-23 09:31:00,
2013-04-23 05:36:00,68.5,65.5,29.87,NW,315,0.0,4.7,90,0.00,,---,0.80,VWS V13.01,2013-04-23 09:36:00,
2013-04-23 05:41:00,68.5,65.5,29.87,NW,315,0.0,4.7,90,0.00,,---,0.80,VWS V13.01,2013-04-23 09:41:00,
2013-04-23 05:47:00,68.5,65.5,29.87,NW,315,0.0,4.7,90,0.00,,---,0.80,VWS V13.01,2013-04-23 09:47:00,
2013-04-23 05:52:00,68.5,65.5,29.87,NW,315,0.0,4.7,90,0.00,,---,0.80,VWS V13.01,2013-04-23 09:52:00,
2013-04-23 05:57:00,68.4,65.3,29.88,NW,315,0.0,4.7,90,0.00,,---,0.80,VWS V13.01,2013-04-23 09:57:00,
2013-04-23 06:02:00,68.5,65.5,29.87,NW,315,0.0,0.0,90,0.00,,---,0.80,VWS V13.01,2013-04-23 10:02:00,
2013-04-23 06:07:00,68.4,65.3,29.88,NW,315,0.0,0.0,90,0.00,,---,0.80,VWS V13.01,2013-04-23 10:07:00,
2013-04-23 06:12:00,68.4,65.3,29.88,NW,315,0.0,0.0,90,0.00,,---,0.80,VWS V13.01,2013-04-23 10:12:00,
2013-04-23 06:17:00,68.4,65.3,29.88,NW,315,0.0,0.0,90,0.00,,---,0.80,VWS V13.01,2013-04-23 10:17:00,
2013-04-23 06:22:00,68.4,65.3,29.88,NW,315,0.0,0.0,90,0.00,,---,0.80,VWS V13.01,2013-04-23 10:22:00,
2013-04-23 06:27:00,68.4,65.3,29.88,NW,315,0.0,0.0,90,0.00,,---,0.80,VWS V13.01,2013-04-23 10:27:00,
2013-04-23 06:32:00,68.2,65.1,29.89,NW,315,0.0,0.0,90,0.00,,---,0.80,VWS V13.01,2013-04-23 10:32:00,
2013-04-23 06:37:00,68.2,65.1,29.88,NW,315,0.0,0.0,90,0.00,,---,0.80,VWS V13.01,2013-04-23 10:37:00,
2013-04-23 06:42:00,68.2,65.1,29.89,NW,315,0.0,0.0,90,0.00,,---,0.80,VWS V13.01,2013-04-23 10:42:00,
2013-04-23 06:47:00,68.2,65.1,29.89,NW,315,0.0,0.0,90,0.00,,---,0.80,VWS V13.01,2013-04-23 10:47:00,
2013-04-23 06:52:00,68.2,65.1,29.89,NW,315,0.0,0.0,90,0.00,,---,0.80,VWS V13.01,2013-04-23 10:52:00,
2013-04-23 06:57:00,68.2,65.1,29.89,NW,315,0.0,0.0,90,0.00,,---,0.80,VWS V13.01,2013-04-23 10:57:00,
2013-04-23 07:02:00,68.2,65.1,29.89,NW,315,0.0,0.0,90,0.00,,---,0.77,VWS V13.01,2013-04-23 11:02:00,
2013-04-23 07:07:00,68.2,65.5,29.89,NW,315,0.0,0.0,91,0.00,,---,0.77,VWS V13.01,2013-04-23 11:07:00,
2013-04-23 07:12:00,68.4,65.6,29.90,NW,315,0.0,0.0,91,0.00,,---,0.77,VWS V13.01,2013-04-23 11:12:00,
2013-04-23 07:17:00,68.4,65.6,29.90,NW,315,0.0,0.0,91,0.00,,---,0.77,VWS V13.01,2013-04-23 11:17:00,
2013-04-23 07:22:00,68.7,66.0,29.90,NW,315,0.0,0.0,91,0.00,,---,0.77,VWS V13.01,2013-04-23 11:22:00,
2013-04-23 07:27:00,69.3,66.5,29.90,NW,315,0.0,0.0,91,0.00,,---,0.77,VWS V13.01,2013-04-23 11:27:00,
2013-04-23 07:32:00,70.2,67.4,29.90,NW,315,0.0,0.0,91,0.00,,---,0.77,VWS V13.01,2013-04-23 11:32:00,
2013-04-23 07:37:00,71.2,68.5,29.90,NW,315,0.0,0.0,91,0.00,,---,0.77,VWS V13.01,2013-04-23 11:37:00,
2013-04-23 07:42:00,72.0,69.2,29.90,NW,315,0.0,0.0,91,0.00,,---,0.77,VWS V13.01,2013-04-23 11:42:00,
2013-04-23 07:47:00,73.2,70.4,29.90,NW,315,0.0,0.0,91,0.00,,---,0.77,VWS V13.01,2013-04-23 11:47:00,
2013-04-23 07:52:00,74.1,71.3,29.91,NW,315,0.0,0.0,91,0.00,,---,0.77,VWS V13.01,2013-04-23 11:52:00,
2013-04-23 07:57:00,74.8,72.0,29.91,NW,315,0.0,0.0,91,0.00,,---,0.77,VWS V13.01,2013-04-23 11:57:00,
2013-04-23 08:02:00,75.4,72.6,29.91,NW,315,0.0,0.0,91,0.00,,---,0.77,VWS V13.01,2013-04-23 12:02:00,
2013-04-23 08:07:00,74.8,72.0,29.91,NW,315,0.0,0.0,91,0.00,,---,0.77,VWS V13.01,2013-04-23 12:07:00,
2013-04-23 08:12:00,74.7,66.6,29.91,NW,315,0.0,0.0,76,0.00,,---,0.77,VWS V13.01,2013-04-23 12:12:00,
2013-04-23 08:17:00,74.7,66.6,29.91,NW,315,0.0,0.0,76,0.00,,---,0.77,VWS V13.01,2013-04-23 12:17:00,
2013-04-23 08:22:00,74.5,66.4,29.91,NW,315,0.0,0.0,76,0.00,,---,0.77,VWS V13.01,2013-04-23 12:22:00,
2013-04-23 08:27:00,74.8,66.0,29.91,NNW,338,0.0,0.0,74,0.00,,---,0.77,VWS V13.01,2013-04-23 12:27:00,
2013-04-23 08:32:00,74.7,65.4,29.92,NNW,338,0.0,0.0,73,0.00,,---,0.77,VWS V13.01,2013-04-23 12:32:00,
2013-04-23 08:37:00,74.7,65.4,29.92,NNW,338,0.0,0.0,73,0.00,,---,0.77,VWS V13.01,2013-04-23 12:37:00,
2013-04-23 08:42:00,74.8,65.6,29.92,NNW,338,0.0,0.0,73,0.00,,---,0.77,VWS V13.01,2013-04-23 12:42:00,
2013-04-23 08:47:00,75.2,66.0,29.92,NNW,338,0.0,0.0,73,0.00,,---,0.77,VWS V13.01,2013-04-23 12:47:00,
2013-04-23 08:52:00,75.4,65.7,29.92,NNW,338,0.0,0.0,72,0.00,,---,0.77,VWS V13.01,2013-04-23 12:52:00,
2013-04-23 08:57:00,75.6,65.9,29.93,NNW,338,0.0,0.0,72,0.00,,---,0.77,VWS V13.01,2013-04-23 12:57:00,
2013-04-23 09:02:00,76.1,66.0,29.93,NNW,338,0.0,0.0,71,0.00,,---,0.77,VWS V13.01,2013-04-23 13:02:00,
2013-04-23 09:07:00,76.5,66.0,29.93,NNW,338,0.0,0.0,70,0.00,,---,0.77,VWS V13.01,2013-04-23 13:07:00,
2013-04-23 09:12:00,76.8,65.9,29.93,NNW,338,0.0,0.0,69,0.00,,---,0.77,VWS V13.01,2013-04-23 13:12:00,
2013-04-23 09:17:00,77.2,65.8,29.93,NNW,338,0.0,0.0,68,0.00,,---,0.77,VWS V13.01,2013-04-23 13:17:00,
2013-04-23 09:22:00,77.7,66.3,29.93,NNW,338,0.0,0.0,68,0.00,,---,0.77,VWS V13.01,2013-04-23 13:22:00,
2013-04-23 09:27:00,77.9,65.6,29.93,NE,45,0.0,0.0,66,0.00,,---,0.77,VWS V13.01,2013-04-23 13:27:00,
2013-04-23 09:32:00,77.9,65.2,29.93,NE,45,0.0,0.0,65,0.00,,---,0.77,VWS V13.01,2013-04-23 13:32:00,
2013-04-23 09:37:00,78.3,65.5,29.94,NE,45,0.0,0.0,65,0.00,,---,0.77,VWS V13.01,2013-04-23 13:37:00,
2013-04-23 09:42:00,78.4,65.3,29.94,ENE,68,3.4,4.5,64,0.00,,---,0.77,VWS V13.01,2013-04-23 13:42:00,
2013-04-23 09:47:00,78.4,65.3,29.94,ENE,68,2.7,4.5,64,0.00,,---,0.77,VWS V13.01,2013-04-23 13:47:00,
2013-04-23 09:52:00,79.2,65.9,29.94,ENE,68,10.3,10.3,64,0.00,,---,0.77,VWS V13.01,2013-04-23 13:52:00,
2013-04-23 09:57:00,79.2,65.9,29.94,ENE,68,0.0,10.3,64,0.00,,---,0.77,VWS V13.01,2013-04-23 13:57:00,
2013-04-23 10:02:00,79.2,65.9,29.95,NE,45,4.9,5.6,64,0.00,,---,0.77,VWS V13.01,2013-04-23 14:02:00,
2013-04-23 10:07:00,79.0,62.5,29.95,NE,45,0.0,7.2,57,0.00,,---,0.77,VWS V13.01,2013-04-23 14:07:00,
2013-04-23 10:12:00,78.6,62.1,29.95,ENE,68,6.0,13.0,57,0.00,,---,0.77,VWS V13.01,2013-04-23 14:12:00,
2013-04-23 10:17:00,78.4,62.0,29.95,NE,45,2.5,13.0,57,0.00,,---,0.77,VWS V13.01,2013-04-23 14:17:00,
2013-04-23 10:22:00,78.6,62.1,29.95,NE,45,6.7,13.0,57,0.00,,---,0.77,VWS V13.01,2013-04-23 14:22:00,
2013-04-23 10:27:00,79.0,62.5,29.95,ENE,68,5.6,13.0,57,0.00,,---,0.77,VWS V13.01,2013-04-23 14:27:00,
2013-04-23 10:32:00,79.7,63.1,29.95,ENE,68,8.5,13.0,57,0.00,,---,0.77,VWS V13.01,2013-04-23 14:32:00,
2013-04-23 10:37:00,80.1,60.3,29.95,ENE,68,1.8,13.0,51,0.00,,---,0.77,VWS V13.01,2013-04-23 14:37:00,
2013-04-23 10:42:00,80.6,60.3,29.96,East,90,7.2,13.0,50,0.00,,---,0.77,VWS V13.01,2013-04-23 14:42:00,
2013-04-23 10:47:00,81.0,60.0,29.96,ENE,68,7.8,13.0,49,0.00,,---,0.77,VWS V13.01,2013-04-23 14:47:00,
2013-04-23 10:52:00,81.0,60.0,29.96,NE,45,5.8,13.4,49,0.00,,---,0.77,VWS V13.01,2013-04-23 14:52:00,
2013-04-23 10:57:00,81.1,60.2,29.96,East,90,7.6,13.4,49,0.00,,---,0.77,VWS V13.01,2013-04-23 14:57:00,
2013-04-23 11:02:00,81.0,60.0,29.96,ENE,68,12.3,12.3,49,0.00,,---,0.77,VWS V13.01,2013-04-23 15:02:00,
2013-04-23 11:07:00,81.0,60.0,29.96,ENE,68,1.1,13.9,49,0.00,,---,0.77,VWS V13.01,2013-04-23 15:07:00,
2013-04-23 11:12:00,81.3,60.3,29.96,NE,45,8.7,13.9,49,0.00,,---,0.77,VWS V13.01,2013-04-23 15:12:00,
2013-04-23 11:17:00,81.7,60.7,29.96,East,90,4.0,13.9,49,0.00,,---,0.77,VWS V13.01,2013-04-23 15:17:00,
2013-04-23 11:22:00,82.0,61.6,29.96,ENE,68,0.0,13.9,50,0.00,,---,0.77,VWS V13.01,2013-04-23 15:22:00,
2013-04-23 11:27:00,82.4,61.9,29.96,East,90,11.9,13.9,50,0.00,,---,0.77,VWS V13.01,2013-04-23 15:27:00,
2013-04-23 11:32:00,82.6,62.1,29.96,ENE,68,10.7,13.9,50,0.00,,---,0.77,VWS V13.01,2013-04-23 15:32:00,
2013-04-23 11:37:00,82.8,62.2,29.96,ENE,68,7.4,13.9,50,0.00,,---,0.77,VWS V13.01,2013-04-23 15:37:00,
2013-04-23 11:42:00,82.2,61.8,29.96,NE,45,8.1,13.9,50,0.00,,---,0.77,VWS V13.01,2013-04-23 15:42:00,
2013-04-23 11:47:00,81.9,61.4,29.97,North,0,1.3,13.9,50,0.00,,---,0.77,VWS V13.01,2013-04-23 15:47:00,
2013-04-23 11:52:00,82.6,62.1,29.96,NE,45,0.0,13.9,50,0.00,,---,0.77,VWS V13.01,2013-04-23 15:52:00,
2013-04-23 11:57:00,82.6,62.1,29.96,ENE,68,3.4,15.7,50,0.00,,---,0.77,VWS V13.01,2013-04-23 15:57:00,
2013-04-23 12:02:00,82.9,62.4,29.96,ENE,68,7.4,9.8,50,0.00,,---,0.77,VWS V13.01,2013-04-23 16:02:00,
2013-04-23 12:07:00,82.8,62.2,29.96,ENE,68,3.4,11.0,50,0.00,,---,0.77,VWS V13.01,2013-04-23 16:07:00,
2013-04-23 12:12:00,83.1,62.6,29.96,ENE,68,8.1,11.0,50,0.00,,---,0.77,VWS V13.01,2013-04-23 16:12:00,
2013-04-23 12:17:00,83.1,62.6,29.96,ENE,68,0.0,12.8,50,0.00,,---,0.77,VWS V13.01,2013-04-23 16:17:00,
2013-04-23 12:22:00,83.3,62.7,29.96,ENE,68,3.4,12.8,50,0.00,,---,0.77,VWS V13.01,2013-04-23 16:22:00,
2013-04-23 12:27:00,83.3,62.7,29.96,NE,45,5.8,12.8,50,0.00,,---,0.77,VWS V13.01,2013-04-23 16:27:00,
2013-04-23 12:32:00,83.7,63.1,29.96,ENE,68,5.6,14.3,50,0.00,,---,0.77,VWS V13.01,2013-04-23 16:32:00,
2013-04-23 12:37:00,83.8,63.2,29.96,NE,45,1.6,14.3,50,0.00,,---,0.77,VWS V13.01,2013-04-23 16:37:00,
2013-04-23 12:42:00,84.0,63.4,29.96,East,90,10.7,14.3,50,0.00,,---,0.77,VWS V13.01,2013-04-23 16:42:00,
2013-04-23 12:47:00,83.8,63.2,29.96,NE,45,5.8,16.1,50,0.00,,---,0.77,VWS V13.01,2013-04-23 16:47:00,
2013-04-23 12:52:00,83.8,60.2,29.95,NE,45,7.8,16.1,45,0.00,,---,0.77,VWS V13.01,2013-04-23 16:52:00,
2013-04-23 12:57:00,84.0,60.4,29.95,NE,45,11.6,17.0,45,0.00,,---,0.77,VWS V13.01,2013-04-23 16:57:00,
2013-04-23 13:02:00,84.0,60.4,29.96,ENE,68,11.6,11.6,45,0.00,,---,0.77,VWS V13.01,2013-04-23 17:02:00,
2013-04-23 13:07:00,83.7,60.1,29.95,ENE,68,9.4,12.5,45,0.00,,---,0.77,VWS V13.01,2013-04-23 17:07:00,
2013-04-23 13:12:00,83.8,60.2,29.95,East,90,8.7,12.5,45,0.00,,---,0.77,VWS V13.01,2013-04-23 17:12:00,
2013-04-23 13:17:00,84.2,60.6,29.94,ENE,68,6.3,12.5,45,0.00,,---,0.77,VWS V13.01,2013-04-23 17:17:00,
2013-04-23 13:22:00,84.4,60.7,29.94,NE,45,5.6,12.5,45,0.00,,---,0.77,VWS V13.01,2013-04-23 17:22:00,
2013-04-23 13:27:00,84.7,61.1,29.94,ENE,68,1.8,14.3,45,0.00,,---,0.77,VWS V13.01,2013-04-23 17:27:00,
2013-04-23 13:32:00,84.4,60.7,29.94,ENE,68,13.6,14.3,45,0.00,,---,0.77,VWS V13.01,2013-04-23 17:32:00,
2013-04-23 13:37:00,83.3,59.8,29.94,ENE,68,2.5,14.3,45,0.00,,---,0.77,VWS V13.01,2013-04-23 17:37:00,
2013-04-23 13:42:00,83.3,59.8,29.94,ENE,68,2.7,14.3,45,0.00,,---,0.77,VWS V13.01,2013-04-23 17:42:00,
2013-04-23 13:47:00,83.3,59.8,29.94,NE,45,7.8,14.3,45,0.00,,---,0.77,VWS V13.01,2013-04-23 17:47:00,
2013-04-23 13:52:00,82.8,59.3,29.94,ENE,68,5.6,14.3,45,0.00,,---,0.77,VWS V13.01,2013-04-23 17:52:00,
2013-04-23 13:57:00,83.3,61.6,29.93,ENE,68,1.6,14.3,48,0.00,,---,0.77,VWS V13.01,2013-04-23 17:57:00,
2013-04-23 14:02:00,83.7,61.9,29.93,ENE,68,5.6,9.2,48,0.00,,---,0.77,VWS V13.01,2013-04-23 18:02:00,
2013-04-23 14:07:00,83.7,61.9,29.93,ENE,68,8.1,11.2,48,0.00,,---,0.77,VWS V13.01,2013-04-23 18:07:00,
2013-04-23 14:12:00,83.1,61.4,29.93,ENE,68,3.6,14.5,48,0.00,,---,0.77,VWS V13.01,2013-04-23 18:12:00,
2013-04-23 14:17:00,82.6,60.9,29.93,ENE,68,5.8,15.0,48,0.00,,---,0.77,VWS V13.01,2013-04-23 18:17:00,
2013-04-23 14:22:00,82.8,61.1,29.93,NE,45,9.2,15.0,48,0.00,,---,0.77,VWS V13.01,2013-04-23 18:22:00,
2013-04-23 14:27:00,83.1,60.2,29.93,NE,45,4.0,15.0,46,0.00,,---,0.77,VWS V13.01,2013-04-23 18:27:00,
2013-04-23 14:32:00,82.8,59.9,29.93,ENE,68,2.9,15.0,46,0.00,,---,0.77,VWS V13.01,2013-04-23 18:32:00,
2013-04-23 14:37:00,82.6,59.7,29.93,ENE,68,3.1,15.0,46,0.00,,---,0.77,VWS V13.01,2013-04-23 18:37:00,
2013-04-23 14:42:00,83.3,60.4,29.93,ENE,68,9.4,15.7,46,0.00,,---,0.77,VWS V13.01,2013-04-23 18:42:00,
2013-04-23 14:47:00,82.9,60.0,29.93,ENE,68,9.8,15.7,46,0.00,,---,0.77,VWS V13.01,2013-04-23 18:47:00,
2013-04-23 14:52:00,82.8,59.9,29.93,ENE,68,4.5,15.7,46,0.00,,---,0.77,VWS V13.01,2013-04-23 18:52:00,
2013-04-23 14:57:00,83.1,60.2,29.93,NE,45,3.1,15.7,46,0.00,,---,0.77,VWS V13.01,2013-04-23 18:57:00,
2013-04-23 15:02:00,83.7,60.7,29.93,ENE,68,2.5,12.3,46,0.00,,---,0.77,VWS V13.01,2013-04-23 19:02:00,
2013-04-23 15:07:00,84.2,61.2,29.93,NNE,22,6.5,12.3,46,0.00,,---,0.77,VWS V13.01,2013-04-23 19:07:00,
2013-04-23 15:12:00,83.7,58.2,29.93,ENE,68,8.7,12.3,42,0.00,,---,0.77,VWS V13.01,2013-04-23 19:12:00,
2013-04-23 15:17:00,83.3,57.8,29.93,East,90,4.0,12.3,42,0.00,,---,0.77,VWS V13.01,2013-04-23 19:17:00,
2013-04-23 15:22:00,82.8,57.3,29.93,NE,45,4.7,14.8,42,0.00,,---,0.77,VWS V13.01,2013-04-23 19:22:00,
2013-04-23 15:27:00,82.8,58.0,29.93,NE,45,2.9,14.8,43,0.00,,---,0.77,VWS V13.01,2013-04-23 19:27:00,
2013-04-23 15:32:00,82.8,58.0,29.93,ENE,68,1.8,14.8,43,0.00,,---,0.77,VWS V13.01,2013-04-23 19:32:00,
2013-04-23 15:37:00,83.3,58.5,29.93,East,90,15.7,15.7,43,0.00,,---,0.77,VWS V13.01,2013-04-23 19:37:00,
2013-04-23 15:42:00,82.8,58.0,29.92,NE,45,0.0,15.7,43,0.00,,---,0.77,VWS V13.01,2013-04-23 19:42:00,
2013-04-23 15:47:00,83.3,58.5,29.92,NNE,22,1.8,15.7,43,0.00,,---,0.77,VWS V13.01,2013-04-23 19:47:00,
2013-04-23 15:52:00,83.7,58.8,29.92,NE,45,6.5,15.7,43,0.00,,---,0.77,VWS V13.01,2013-04-23 19:52:00,
2013-04-23 15:57:00,83.7,58.2,29.92,ENE,68,10.5,15.9,42,0.00,,---,0.77,VWS V13.01,2013-04-23 19:57:00,
2013-04-23 16:02:00,83.1,58.3,29.92,ENE,68,10.7,10.7,43,0.00,,---,0.02,VWS V13.01,2013-04-23 20:02:00,
2013-04-23 16:07:00,83.1,58.3,29.92,NE,45,6.7,10.7,43,0.00,,---,0.02,VWS V13.01,2013-04-23 20:07:00,
2013-04-23 16:12:00,82.6,57.8,29.92,ENE,68,6.5,13.4,43,0.00,,---,0.02,VWS V13.01,2013-04-23 20:12:00,
2013-04-23 16:17:00,82.4,57.7,29.92,NNE,22,6.0,13.4,43,0.00,,---,0.02,VWS V13.01,2013-04-23 20:17:00,
2013-04-23 16:22:00,82.0,57.4,29.91,NE,45,0.0,13.4,43,0.00,,---,0.02,VWS V13.01,2013-04-23 20:22:00,
2013-04-23 16:27:00,82.8,58.0,29.91,ENE,68,5.1,13.4,43,0.00,,---,0.02,VWS V13.01,2013-04-23 20:27:00,
2013-04-23 16:32:00,82.6,57.8,29.91,ENE,68,4.7,13.4,43,0.00,,---,0.02,VWS V13.01,2013-04-23 20:32:00,
2013-04-23 16:37:00,82.6,57.8,29.91,NNE,22,4.7,13.4,43,0.00,,---,0.02,VWS V13.01,2013-04-23 20:37:00,
2013-04-23 16:42:00,82.4,57.7,29.91,ENE,68,7.2,15.4,43,0.00,,---,0.02,VWS V13.01,2013-04-23 20:42:00,
2013-04-23 16:47:00,82.4,57.7,29.91,ENE,68,6.0,15.4,43,0.00,,---,0.02,VWS V13.01,2013-04-23 20:47:00,
2013-04-23 16:52:00,82.2,57.5,29.91,NE,45,6.9,15.4,43,0.00,,---,0.02,VWS V13.01,2013-04-23 20:52:00,
2013-04-23 16:57:00,82.0,57.4,29.91,NE,45,2.0,15.4,43,0.00,,---,0.02,VWS V13.01,2013-04-23 20:57:00,
2013-04-23 17:02:00,82.2,58.2,29.92,NE,45,7.8,9.8,44,0.00,,---,0.00,VWS V13.01,2013-04-23 21:02:00,
2013-04-23 17:07:00,81.9,57.8,29.91,NE,45,8.3,9.8,44,0.00,,---,0.00,VWS V13.01,2013-04-23 21:07:00,
2013-04-23 17:12:00,81.9,57.8,29.92,ENE,68,7.8,13.2,44,0.00,,---,0.00,VWS V13.01,2013-04-23 21:12:00,
2013-04-23 17:17:00,81.9,57.8,29.92,ENE,68,2.2,13.2,44,0.00,,---,0.00,VWS V13.01,2013-04-23 21:17:00,
2013-04-23 17:22:00,82.0,58.0,29.91,NE,45,0.0,13.2,44,0.00,,---,0.00,VWS V13.01,2013-04-23 21:22:00,
2013-04-23 17:27:00,82.0,58.0,29.91,NE,45,4.0,13.2,44,0.00,,---,0.00,VWS V13.01,2013-04-23 21:27:00,
2013-04-23 17:32:00,81.5,57.5,29.92,ENE,68,5.4,13.2,44,0.00,,---,0.00,VWS V13.01,2013-04-23 21:32:00,
2013-04-23 17:37:00,81.3,57.3,29.92,ENE,68,7.8,13.2,44,0.00,,---,0.00,VWS V13.01,2013-04-23 21:37:00,
2013-04-23 17:42:00,81.0,57.0,29.92,NE,45,6.3,13.9,44,0.00,,---,0.00,VWS V13.01,2013-04-23 21:42:00,
2013-04-23 17:47:00,80.8,56.9,29.92,ENE,68,9.0,13.9,44,0.00,,---,0.00,VWS V13.01,2013-04-23 21:47:00,
2013-04-23 17:52:00,80.6,56.7,29.92,ENE,68,8.3,13.9,44,0.00,,---,0.00,VWS V13.01,2013-04-23 21:52:00,
2013-04-23 17:57:00,80.8,56.9,29.92,NE,45,6.9,13.9,44,0.00,,---,0.00,VWS V13.01,2013-04-23 21:57:00,
2013-04-23 18:02:00,80.4,56.5,29.92,NE,45,0.0,5.8,44,0.00,,---,0.00,VWS V13.01,2013-04-23 22:02:00,
2013-04-23 18:07:00,80.6,56.7,29.92,ENE,68,6.5,10.1,44,0.00,,---,0.00,VWS V13.01,2013-04-23 22:07:00,
2013-04-23 18:12:00,80.2,56.4,29.92,ENE,68,3.6,10.1,44,0.00,,---,0.00,VWS V13.01,2013-04-23 22:12:00,
2013-04-23 18:17:00,80.1,56.2,29.93,ENE,68,6.0,13.6,44,0.00,,---,0.00,VWS V13.01,2013-04-23 22:17:00,
2013-04-23 18:22:00,79.7,55.9,29.92,East,90,2.2,13.6,44,0.00,,---,0.00,VWS V13.01,2013-04-23 22:22:00,
2013-04-23 18:27:00,79.9,56.0,29.92,NE,45,6.9,13.6,44,0.00,,---,0.00,VWS V13.01,2013-04-23 22:27:00,
2013-04-23 18:32:00,79.7,55.9,29.92,ENE,68,3.4,13.6,44,0.00,,---,0.00,VWS V13.01,2013-04-23 22:32:00,
2013-04-23 18:37:00,79.3,55.6,29.93,NE,45,7.4,13.6,44,0.00,,---,0.00,VWS V13.01,2013-04-23 22:37:00,
2013-04-23 18:42:00,79.3,56.8,29.93,ENE,68,5.6,13.6,46,0.00,,---,0.00,VWS V13.01,2013-04-23 22:42:00,
2013-04-23 18:47:00,79.0,56.5,29.93,ENE,68,3.6,13.6,46,0.00,,---,0.00,VWS V13.01,2013-04-23 22:47:00,
2013-04-23 18:52:00,78.4,56.0,29.93,ENE,68,2.7,13.6,46,0.00,,---,0.00,VWS V13.01,2013-04-23 22:52:00,
2013-04-23 18:57:00,78.3,56.4,29.93,NE,45,4.5,13.6,47,0.00,,---,0.00,VWS V13.01,2013-04-23 22:57:00,
2013-04-23 19:02:00,78.1,56.2,29.93,ENE,68,7.8,11.6,47,0.00,,---,0.00,VWS V13.01,2013-04-23 23:02:00,
2013-04-23 19:07:00,77.9,56.1,29.94,ENE,68,6.3,11.6,47,0.00,,---,0.00,VWS V13.01,2013-04-23 23:07:00,
2013-04-23 19:12:00,77.9,56.7,29.94,ENE,68,5.8,11.6,48,0.00,,---,0.00,VWS V13.01,2013-04-23 23:12:00,
2013-04-23 19:17:00,77.7,57.6,29.94,North,0,8.7,11.6,50,0.00,,---,0.00,VWS V13.01,2013-04-23 23:17:00,
2013-04-23 19:22:00,77.9,58.3,29.94,ENE,68,10.7,11.6,51,0.00,,---,0.00,VWS V13.01,2013-04-23 23:22:00,
2013-04-23 19:27:00,77.7,58.2,29.94,ENE,68,0.0,11.6,51,0.00,,---,0.00,VWS V13.01,2013-04-23 23:27:00,
2013-04-23 19:32:00,77.7,58.7,29.94,ENE,68,6.3,11.6,52,0.00,,---,0.00,VWS V13.01,2013-04-23 23:32:00,
2013-04-23 19:37:00,77.4,58.4,29.95,NE,45,6.3,11.6,52,0.00,,---,0.00,VWS V13.01,2013-04-23 23:37:00,
2013-04-23 19:42:00,77.2,57.7,29.95,NNE,22,5.6,11.6,51,0.00,,---,0.00,VWS V13.01,2013-04-23 23:42:00,
2013-04-23 19:47:00,76.8,57.3,29.95,ENE,68,6.3,11.6,51,0.00,,---,0.00,VWS V13.01,2013-04-23 23:47:00,
2013-04-23 19:52:00,76.5,56.5,29.95,ENE,68,3.4,11.6,50,0.00,,---,0.00,VWS V13.01,2013-04-23 23:52:00,
2013-04-23 19:57:00,76.3,56.3,29.95,ENE,68,3.8,11.6,50,0.00,,---,0.00,VWS V13.01,2013-04-23 23:57:00,
2013-04-23 20:02:00,76.1,56.1,29.96,NE,45,2.9,9.8,50,0.00,,---,0.00,VWS V13.01,2013-04-24 00:02:00,
2013-04-23 20:07:00,76.1,56.1,29.96,ENE,68,0.0,9.8,50,0.00,,---,0.00,VWS V13.01,2013-04-24 00:07:00,
2013-04-23 20:12:00,75.9,57.0,29.96,NE,45,3.6,9.8,52,0.00,,---,0.00,VWS V13.01,2013-04-24 00:12:00,
2013-04-23 20:17:00,75.9,57.0,29.96,ENE,68,0.0,9.8,52,0.00,,---,0.00,VWS V13.01,2013-04-24 00:17:00,
2013-04-23 20:22:00,75.9,57.0,29.96,NE,45,1.3,9.8,52,0.00,,---,0.00,VWS V13.01,2013-04-24 00:22:00,
2013-04-23 20:27:00,75.9,57.0,29.96,ENE,68,6.0,9.8,52,0.00,,---,0.00,VWS V13.01,2013-04-24 00:27:00,
2013-04-23 20:32:00,75.9,57.0,29.96,NE,45,4.9,9.8,52,0.00,,---,0.00,VWS V13.01,2013-04-24 00:32:00,
2013-04-23 20:37:00,75.6,57.2,29.96,North,0,2.9,9.8,53,0.00,,---,0.00,VWS V13.01,2013-04-24 00:37:00,
2013-04-23 20:42:00,75.6,57.2,29.96,ENE,68,7.6,9.8,53,0.00,,---,0.00,VWS V13.01,2013-04-24 00:42:00,
2013-04-23 20:47:00,75.4,57.1,29.96,NE,45,4.9,9.8,53,0.00,,---,0.00,VWS V13.01,2013-04-24 00:47:00,
2013-04-23 20:52:00,75.4,57.6,29.97,ENE,68,2.0,9.8,54,0.00,,---,0.00,VWS V13.01,2013-04-24 00:52:00,
2013-04-23 20:57:00,75.2,57.4,29.97,ENE,68,1.3,10.7,54,0.00,,---,0.00,VWS V13.01,2013-04-24 00:57:00,
2013-04-23 21:02:00,75.0,57.3,29.97,NE,45,1.6,4.7,54,0.00,,---,0.00,VWS V13.01,2013-04-24 01:02:00,
2013-04-23 21:07:00,75.0,57.3,29.97,NE,45,0.0,4.9,54,0.00,,---,0.00,VWS V13.01,2013-04-24 01:07:00,
2013-04-23 21:12:00,74.8,57.1,29.97,ENE,68,0.0,4.9,54,0.00,,---,0.00,VWS V13.01,2013-04-24 01:12:00,
2013-04-23 21:17:00,74.7,56.9,29.97,NE,45,0.0,10.3,54,0.00,,---,0.00,VWS V13.01,2013-04-24 01:17:00,
2013-04-23 21:22:00,74.7,56.9,29.98,NE,45,0.0,10.3,54,0.00,,---,0.00,VWS V13.01,2013-04-24 01:22:00,
2013-04-23 21:27:00,74.7,56.9,29.98,NE,45,1.3,10.3,54,0.00,,---,0.00,VWS V13.01,2013-04-24 01:27:00,
2013-04-23 21:32:00,74.7,56.9,29.98,ENE,68,2.5,10.3,54,0.00,,---,0.00,VWS V13.01,2013-04-24 01:32:00,
2013-04-23 21:37:00,74.7,56.9,29.98,NE,45,2.2,10.3,54,0.00,,---,0.00,VWS V13.01,2013-04-24 01:37:00,
2013-04-23 21:42:00,74.5,56.8,29.98,ENE,68,1.3,10.3,54,0.00,,---,0.00,VWS V13.01,2013-04-24 01:42:00,
2013-04-23 21:47:00,74.5,57.3,29.98,NE,45,1.3,10.3,55,0.00,,---,0.00,VWS V13.01,2013-04-24 01:47:00,
2013-04-23 21:52:00,74.3,57.1,29.99,NE,45,1.6,10.3,55,0.00,,---,0.00,VWS V13.01,2013-04-24 01:52:00,
2013-04-23 21:57:00,74.5,57.3,29.99,ENE,68,1.6,10.3,55,0.00,,---,0.00,VWS V13.01,2013-04-24 01:57:00,
2013-04-23 22:02:00,74.3,57.1,29.99,NE,45,3.4,6.0,55,0.00,,---,0.00,VWS V13.01,2013-04-24 02:02:00,
2013-04-23 22:07:00,74.3,57.1,29.99,ENE,68,0.0,10.3,55,0.00,,---,0.00,VWS V13.01,2013-04-24 02:07:00,
2013-04-23 22:12:00,74.5,57.3,29.99,NE,45,2.0,10.3,55,0.00,,---,0.00,VWS V13.01,2013-04-24 02:12:00,
2013-04-23 22:17:00,74.3,57.1,29.99,ENE,68,6.3,10.3,55,0.00,,---,0.00,VWS V13.01,2013-04-24 02:17:00,
2013-04-23 22:22:00,74.3,56.6,29.99,NE,45,2.0,10.3,54,0.00,,---,0.00,VWS V13.01,2013-04-24 02:22:00,
2013-04-23 22:28:00,74.3,56.6,30.00,NE,45,2.2,10.3,54,0.00,,---,0.00,VWS V13.01,2013-04-24 02:28:00,
2013-04-23 22:33:00,74.3,56.6,30.00,ENE,68,0.0,10.3,54,0.00,,---,0.00,VWS V13.01,2013-04-24 02:33:00,
2013-04-23 22:38:00,74.1,56.9,30.00,ENE,68,3.8,10.3,55,0.00,,---,0.00,VWS V13.01,2013-04-24 02:38:00,
2013-04-23 22:44:00,74.1,56.9,30.00,ENE,68,2.9,10.3,55,0.00,,---,0.00,VWS V13.01,2013-04-24 02:44:00,
2013-04-23 22:49:00,73.9,57.3,29.99,NE,45,0.0,10.3,56,0.00,,---,0.00,VWS V13.01,2013-04-24 02:49:00,
2013-04-23 22:54:00,73.9,57.3,30.00,ENE,68,0.0,10.3,56,0.00,,---,0.00,VWS V13.01,2013-04-24 02:54:00,
2013-04-23 22:59:00,73.9,57.3,30.00,NE,45,0.0,10.3,56,0.00,,---,0.00,VWS V13.01,2013-04-24 02:59:00,
2013-04-23 23:04:00,73.8,57.1,30.00,NE,45,0.0,4.7,56,0.00,,---,0.00,VWS V13.01,2013-04-24 03:04:00,
2013-04-23 23:10:00,73.8,57.1,30.00,NE,45,0.0,4.9,56,0.00,,---,0.00,VWS V13.01,2013-04-24 03:10:00,
2013-04-23 23:15:00,73.8,57.1,30.00,NE,45,1.6,4.9,56,0.00,,---,0.00,VWS V13.01,2013-04-24 03:15:00,
2013-04-23 23:20:00,73.8,57.1,30.00,NE,45,0.7,4.9,56,0.00,,---,0.00,VWS V13.01,2013-04-24 03:20:00,
2013-04-23 23:25:00,73.8,57.1,30.00,ENE,68,0.0,6.9,56,0.00,,---,0.00,VWS V13.01,2013-04-24 03:25:00,
2013-04-23 23:30:00,73.8,56.6,29.99,NE,45,5.4,6.9,55,0.00,,---,0.00,VWS V13.01,2013-04-24 03:30:00,
2013-04-23 23:35:00,73.8,56.6,29.99,NE,45,0.0,6.9,55,0.00,,---,0.00,VWS V13.01,2013-04-24 03:35:00,
2013-04-23 23:41:00,73.8,56.6,30.00,NE,45,1.8,6.9,55,0.00,,---,0.00,VWS V13.01,2013-04-24 03:41:00,
2013-04-23 23:46:00,73.8,55.6,29.99,ENE,68,0.0,6.9,53,0.00,,---,0.00,VWS V13.01,2013-04-24 03:46:00,
2013-04-23 23:51:00,73.6,55.4,29.99,ENE,68,0.0,6.9,53,0.00,,---,0.00,VWS V13.01,2013-04-24 03:51:00,
2013-04-23 23:57:00,73.8,55.6,29.99,NE,45,3.1,6.9,53,0.00,,---,0.00,VWS V13.01,2013-04-24 03:57:00,